Regional Weather Roundup
Issued by NWS Kansas City/Pleasant Hill, MO

Home | Current Version | Previous Version | Text Only | Print | Product List | Glossary On
Versions: 1 2 3 4 5 6 7 8 9 10 11 12 13 14 15 16 17 18 19 20 21 22 23 24 25 26 27 28 29 30 31 32 33 34 35 36 37 38 39 40 41 42 43 44 45 46 47 48 49 50
000
ASUS43 KEAX 011510
RWREAX

WEATHER ROUNDUP FOR EASTERN KANSAS AND NORTHWEST MISSOURI
NATIONAL WEATHER SERVICE KANSAS CITY/PLEASANT HILL MO
1000 AM CDT TUE SEP 01 2015

KSZ040-057-103>105-MOZ028-029-037-043-011600-
...KANSAS CITY METROPOLITAN AREA...

CITY           SKY/WX    TMP DP  RH WIND       PRES   REMARKS
K.C. INTL      MOSUNNY   80  69  69 S12       30.03S
K.C. DOWNTOWN  SUNNY     82  68  62 SW12      30.02F
LEES SUMMIT    SUNNY     79  68  69 SW10      30.05S
OLATHE - IXD   SUNNY     79  69  71 S10       30.05S
OLATHE - OJC   SUNNY     77  68  73 S8        30.04S
LAWRENCE       SUNNY     80  68  66 S7        30.03R

$$

MOZ001>008-011>017-020>025-030>033-038>040-044>046-053-054-011600-
...NORTHERN AND CENTRAL MISSOURI...

CITY           SKY/WX    TMP DP  RH WIND       PRES   REMARKS
ST. JOSEPH     PTSUNNY   79  70  74 S9        30.01S
MOSBY          SUNNY     79  68  69 S3        30.03F
WARRENSBURG    SUNNY     79  66  65 S8        30.05S
WHITEMAN AFB   SUNNY     81  68  63 SW9       30.05S
CLINTON        SUNNY     81  70  69 S7        30.07F
SEDALIA        SUNNY     82  68  62 SW12      30.08S
WARSAW         NOT AVBL
CHILLICOTHE      N/A     80  70  71 S8        30.04F
KIRKSVILLE     SUNNY     78  68  71 SW10      30.07S

$$

MOZ041-047>049-056>058-063>065-088>090-097-011600-
...EASTERN AND SOUTHERN MISSOURI...

CITY           SKY/WX    TMP DP  RH WIND       PRES   REMARKS
ST. LOUIS INTL MOSUNNY   84  70  62 SW6       30.10S
SPIRIT OF STL  SUNNY     82  71  69 SW8       30.08S
COLUMBIA       SUNNY     80  69  69 SW9       30.09R
JEFFERSON CITY SUNNY     81  68  64 S7        30.07F
ROLLA          SUNNY     81  70  69 SW12      30.10S
OSAGE BEACH    SUNNY     81  70  69 SW3       30.10S
SPRINGFIELD    SUNNY     80  69  69 S9        30.10S
BRANSON        SUNNY     79  68  69 CALM      30.13R
JOPLIN         SUNNY     80  67  64 S12       30.08S
WEST PLAINS    SUNNY     79  70  74 VRB3      30.15S

$$

IAZ060-094-KSZ022-034>040-054-083-096-NEZ052-066-093-011600-
...KANSAS...SOUTHEAST NEBRASKA AND IOWA...

CITY           SKY/WX    TMP DP  RH WIND       PRES   REMARKS
TOPEKA         SUNNY     80  67  64 S8        30.01S
MANHATTAN      SUNNY     82  66  58 SW16G23   29.98S
EMPORIA        SUNNY     77  66  68 S10       30.02S
CHANUTE        SUNNY     79  68  69 S12       30.05S
WICHITA        MOSUNNY   80  65  59 S16       30.01S
OMAHA          PTSUNNY   77  69  76 S12       29.95S
LINCOLN        PTSUNNY   79  66  64 S14       29.95S
FALLS CITY     SUNNY     79  68  69 S10G22    29.98S
LAMONI         SUNNY     78  70  76 SW14      30.02S
DES MOINES     MOSUNNY   79  69  71 SW13      29.98R

$$



USA.gov is the U.S. government's official web portal to all federal, state and local government web resources and services.